This demonstration page uses our WeatherBlox Daily Observations layout. Learn more.

Left ArrowRight Arrow

38.83388, -104.82136

Hourly Observations for August 4, 2022

Temp ( °F °C ) Dew Point ( °F °C ) Humidity (%) Winds ( mph kmh ) Pressure ( in mb ) Visibility ( mi km ) Precip ( " mm )
12:54 am 00:54 Partly Cloudy 64 17.8 56 13.3 75 75 NNE 7 11 29.99 1016 10 16 0.00 0.00
1:54 am 01:54 Partly Cloudy 62 16.7 54 12.2 75 75 NW 3 6 30.01 1016 10 16 0.00 0.00
2:54 am 02:54 Mostly Cloudy 66 18.9 52 11.1 61 61 ENE 3 6 29.97 1015 10 16 0.00 0.00
3:54 am 03:54 Mostly Cloudy 65 18.3 51 10.6 61 61 E 3 6 29.99 1016 10 16 0.00 0.00
4:54 am 04:54 Mostly Cloudy 61 16.1 52 11.1 72 72 Calm 30.00 1016 10 16 0.00 0.00
5:54 am 05:54 Partly Cloudy 62 16.7 52 11.1 70 70 Calm 30.00 1016 10 16 0.00 0.00
6:54 am 06:54 Partly Cloudy 64 17.8 54 12.2 70 70 N 3 6 30.03 1017 10 16 0.00 0.00
7:54 am 07:54 Partly Cloudy 69 20.6 56 13.3 63 63 VRB 3 6 30.03 1017 10 16 0.00 0.00
8:54 am 08:54 Partly Cloudy 72 22.2 56 13.3 57 57 SE 5 7 30.04 1017 10 16 0.00 0.00
9:54 am 09:54 Partly Cloudy 75 23.9 56 13.3 52 52 ESE 6 9 30.02 1017 10 16 0.00 0.00
10:54 am 10:54 Partly Cloudy 78 25.6 56 13.3 47 47 S 6 9 30.00 1016 10 16 0.00 0.00
11:54 am 11:54 Partly Cloudy 80 26.7 56 13.3 44 44 SSW 5 7 29.98 1015 10 16 0.00 0.00
12:54 pm 12:54 Partly Cloudy 83 28.3 56 13.3 40 40 VRB 5 7 29.96 1015 10 16 0.00 0.00
1:54 pm 13:54 Partly Cloudy 87 30.6 54 12.2 32 32 E 8 13 29.93 1014 10 16 0.00 0.00
2:54 pm 14:54 Partly Cloudy 85 29.4 52 11.1 32 32 SSE 5 7 29.91 1013 10 16 0.00 0.00
3:54 pm 15:54 Mostly Cloudy 88 31.1 53 11.7 30 30 SE 8 13 29.89 1012 10 16 0.00 0.00
4:54 pm 16:54 Mostly Cloudy 88 31.1 52 11.1 29 29 SE 8 13 29.90 1012 10 16 0.00 0.00
5:54 pm 17:54 Mostly Cloudy 87 30.6 55 12.8 34 34 SSE 32 52 29.90 1013 10 16 0.00 0.00
6:16 pm 18:16 Mostly Cloudy with Nearby Thunderstorms 79 26.1 55 12.8 44 44 SSE 26 43 29.69 1005 10 16 0.00 0.00
6:27 pm 18:27 Mostly Cloudy with Thunderstorms 77 25 55 12.8 47 47 SSE 30 48 29.71 1006 10 16 0.00 0.00
6:54 pm 18:54 Mostly Cloudy with Nearby Thunderstorms 75 23.9 56 13.3 52 52 SSE 15 24 29.96 1014 10 16 0.00 0.00
7:24 pm 19:24 Mostly Cloudy 74 23.3 56 13.3 54 54 S 5 7 29.77 1008 10 16 0.00 0.00
7:54 pm 19:54 Mostly Cloudy 73 22.8 57 13.9 57 57 NNE 5 7 29.95 1014 10 16 0.00 0.00
8:54 pm 20:54 Mostly Cloudy 73 22.8 57 13.9 57 57 ESE 6 9 29.93 1014 10 16 0.00 0.00
9:54 pm 21:54 Mostly Cloudy 72 22.2 57 13.9 59 59 SE 10 17 29.96 1014 10 16 0.00 0.00
10:54 pm 22:54 Mostly Cloudy 70 21.1 58 14.4 66 66 ESE 8 13 29.96 1015 10 16 0.00 0.00
11:54 pm 23:54 Mostly Cloudy 68 20 57 13.9 68 68 NNW 3 6 29.96 1015 10 16 0.00 0.00

Powered by AerisWeather